logo
App data

Platformines

Store | Hub | SteamDB | Site
Developer: Magiko Gaming Publisher: BANDAI NAMCO Entertainment
Genre: Action, Indie
Languages: English
Tags: Action (51), Platformer (44), Indie (40), 2D (21), Rogue-like (10), RPG (10), Shooter (10), Adventure (9), Pixel Graphics (9), Loot (6), Singleplayer (5)
Category: Single-player, Steam Achievements, Full controller support, Steam Trading Cards, Steam Leaderboards
Release date: Mar 28, 2014
Price: $9.99
Old userscore: 66% Metascore: 67%
Owners: 100,000 .. 200,000
Followers: 899
Peak concurrent players yesterday: 2
Playtime total: 03:08 (average) 03:14 (median)

Steam Spy is still in beta, so expect major bugs.

Owners data:

Access restricted.

This feature is only available to users with special access rights. Sorry.

If you want to proceed, you need to register or log in first and then back Steam Spy on Patreon. Look for Indie or Pro pledge.

Don't forget to use the same email as on Steam Spy!

Audience in 2 weeks:

Access restricted.

This feature is only available to users with special access rights. Sorry.

If you want to proceed, you need to register or log in first and then back Steam Spy on Patreon. Look for Indie or Pro pledge.

Don't forget to use the same email as on Steam Spy!

Peak daily concurrent players:

CCU data courtesy of SteamDB. Used with permission.

Hourly concurrent players:

Daily Twitch stats:

Hourly Twitch stats:

YouTube:

The views data is based on top 50 videos uploaded last week. Actual number of views might be more than the number shown.

The displayed number of videos uploaded yesterday is limited to 50, so if there were more videos uploaded, the number will still show 50.

If the game has commonly used word as its name (like "FEAR" or "Volume") its number of Youtube views might be wrong.

Games similar to this one:

# Game Release date
Price
Score rank
(Userscore / Metascore)
Owners
Players
Playtime (Median)
1 Militia Dec 2, 2015 $2.99N/A (N/A)0 .. 20,0000%00:00 (00:00)
2 Little Big Adventure 2 Oct 20, 2015 $3.99N/A (N/A)20,000 .. 50,0000%00:00 (00:00)
3 Seven Kingdoms: Ancient Adversaries Mar 22, 2016 $5.99N/A (N/A)0 .. 20,0000%00:00 (00:00)
4 Spider: Rite of the Shrouded Moon Aug 6, 2015 $9.99N/A (N/A)20,000 .. 50,0000%00:00 (00:00)
5 Dungeon Warfare Nov 4, 2015 $9.99N/A (N/A)20,000 .. 50,0000%00:00 (00:00)
6 Voodoo Vince: Remastered Apr 17, 2017 $14.99N/A (N/A/63%)0 .. 20,0000%00:00 (00:00)
7 Defend The Highlands Nov 6, 2015 $9.99N/A (N/A)100,000 .. 200,0001.67%00:44 (00:43)
8 Hegemony Gold: Wars of Ancient Greece Mar 30, 2012 $14.99N/A (N/A)20,000 .. 50,0000%00:00 (00:00)
9 Outcast 1.1 Dec 18, 2014 $5.99N/A (N/A)20,000 .. 50,0000%00:00 (00:00)
10 PixelJunk Shooter Nov 11, 2013 $8.99N/A (N/A/73%)100,000 .. 200,0000%00:00 (00:00)
11 Darknet Jun 8, 2017 $7.49N/A (N/A)0 .. 20,0000%00:00 (00:00)
12 Templar Battleforce Sep 21, 2015 $9.99N/A (N/A)20,000 .. 50,0000%00:00 (00:00)
13 Chicken Invaders 2 Mar 4, 2016 $3.99N/A (N/A)0 .. 20,0000%00:00 (00:00)
14 Audio Arena Jul 25, 2016 $2.79N/A (N/A)0 .. 20,0000%00:00 (00:00)
15 Handsome Mr. Frog Aug 8, 2016 $0.99N/A (N/A)0 .. 20,0000%00:00 (00:00)
16 Majesty Gold HD Sep 4, 2009 $9.99N/A (N/A)100,000 .. 200,0000%00:00 (00:00)
17 Star Trek: Judgment Rites May 8, 2015 $9.99N/A (N/A)0 .. 20,0000%00:00 (00:00)
18 Kalimba Apr 22, 2015 $9.99N/A (N/A/81%)0 .. 20,0000%00:00 (00:00)
19 Supercharged Robot VULKAISER Jun 4, 2015 $4.99N/A (N/A)20,000 .. 50,0000%00:00 (00:00)
20 Run or Die Dec 11, 2014 $4.9987% (94%)0 .. 20,0000%00:00 (00:00)
21 Gold Rush! Classic Jul 25, 2014 $2.99N/A (N/A)200,000 .. 500,0001.09%01:46 (02:00)
22 Stick it to The Man! Dec 13, 2013 $7.99N/A (N/A/83%)50,000 .. 100,0000%00:00 (00:00)
23 Flywrench Aug 24, 2015 $6.99N/A (N/A)0 .. 20,0000%00:00 (00:00)
24 Neon Chrome Apr 28, 2016 $14.99N/A (N/A/74%)200,000 .. 500,0000.65%00:21 (00:07)
25 ESCHATOS Sep 18, 2015 $14.99N/A (N/A)0 .. 20,0000%00:00 (00:00)
26 Kick Ass Commandos Nov 17, 2016 $9.99N/A (N/A)20,000 .. 50,0000%00:00 (00:00)
27 Ys VI: The Ark of Napishtim Apr 28, 2015 $19.9983% (93%)50,000 .. 100,0000%00:00 (00:00)
28 Adventure in the Tower of Flight Dec 23, 2015 $4.99N/A (N/A)0 .. 20,0000%00:00 (00:00)
29 RIVE: Wreck, Hack, Die, Retry! Sep 13, 2016 $14.99N/A (N/A)200,000 .. 500,0000%00:00 (00:00)
30 Anarcute Jul 12, 2016 $14.99N/A (N/A/79%)0 .. 20,00012.5%00:14 (00:04)
31 Eufloria HD Oct 14, 2014 $14.99N/A (N/A)200,000 .. 500,0000%00:00 (00:00)
32 Major Mayhem Feb 24, 2014 $4.99N/A (N/A)20,000 .. 50,0000%00:00 (00:00)
33 Bleed Jul 3, 2013 $1.69N/A (N/A)100,000 .. 200,0000%00:00 (00:00)
34 Super Cyborg Jul 8, 2015 $4.99N/A (N/A)20,000 .. 50,0001.43%00:01 (00:00)
35 Pharaoh Rebirth+ Mar 17, 2016 $9.99N/A (N/A)0 .. 20,0000%00:00 (00:00)
36 Death Ray Manta SE Sep 17, 2015 $1.99N/A (N/A)50,000 .. 100,0000%00:00 (00:00)
37 Battle Academy 2: Eastern Front Sep 12, 2014 $39.99N/A (N/A/78%)0 .. 20,0000%00:00 (00:00)
38 Tallowmere Mar 3, 2015 $3.9978% (92%)20,000 .. 50,0003.23%00:01 (00:00)
39 Wars and Warriors: Joan of Arc Sep 3, 2015 $6.99N/A (N/A/60%)0 .. 20,0000%00:00 (00:00)
40 Mad Bullets Jun 10, 2016 $1.99N/A (N/A)0 .. 20,0000%00:00 (00:00)
41 Super Trench Attack! Jul 24, 2014 $4.99N/A (N/A)100,000 .. 200,0000%00:00 (00:00)
42 The Juicer Sep 11, 2015 $0.99N/A (N/A)20,000 .. 50,0000%00:00 (00:00)
43 Knightmare Tower Jun 16, 2014 $3.9978% (92%)0 .. 20,0000%00:00 (00:00)
44 Below Kryll Sep 7, 2015 $0.99N/A (N/A)0 .. 20,0000%00:00 (00:00)
45 Ittle Dew Jul 23, 2013 $9.9978% (92%/67%)100,000 .. 200,0000%00:00 (00:00)
46 Demons with Shotguns Apr 25, 2016 $9.99N/A (N/A)0 .. 20,0008%02:44 (01:49)
47 Momodora III Jul 1, 2014 $1.99N/A (N/A)50,000 .. 100,0001.89%01:02 (00:20)
48 Near Death Aug 2, 2016 $14.99N/A (N/A/70%)0 .. 20,0000%00:00 (00:00)
49 Ace of Seafood Apr 8, 2016 $11.99N/A (N/A)0 .. 20,0000%00:00 (00:00)
50 Khet 2.0 Oct 1, 2014 $9.99N/A (N/A)50,000 .. 100,0000%00:00 (00:00)
51 Miracle Fly Oct 26, 2015 $7.99N/A (N/A)20,000 .. 50,0000%00:00 (00:00)
52 Armed with Wings: Rearmed Jun 1, 2017 $9.99N/A (N/A)20,000 .. 50,0000%00:00 (00:00)
53 Dandy: Or a Brief Glimpse Into the Life of the Candy Alchemist Aug 4, 2015 $9.99N/A (N/A)0 .. 20,0000%00:00 (00:00)
54 Skulls of the Shogun Jul 29, 2013 $9.9973% (91%/72%)200,000 .. 500,0000%00:00 (00:00)
55 Angry Video Game Nerd II: ASSimilation Mar 29, 2016 $9.99N/A (N/A)20,000 .. 50,0000%00:00 (00:00)
56 Great Big War Game Aug 28, 2012 $6.99N/A (N/A)0 .. 20,0000%00:00 (00:00)
57 Earth Defense Force: Insect Armageddon Dec 14, 2011 $9.99N/A (N/A/69%)50,000 .. 100,0000%00:00 (00:00)
58 Blue Estate The Game Apr 8, 2015 $12.9973% (91%/59%)50,000 .. 100,0000%00:00 (00:00)
59 Valley Aug 24, 2016 $19.9973% (91%)100,000 .. 200,0001.64%00:46 (00:15)
60 Clash of Puppets Dec 16, 2014 $4.99N/A (N/A)0 .. 20,0000%00:00 (00:00)
61 Swords and Soldiers HD Dec 2, 2010 $9.99N/A (N/A)200,000 .. 500,0000%00:00 (00:00)
62 Superstatic Sep 15, 2015 $4.99N/A (N/A)0 .. 20,0000%00:00 (00:00)
63 Kohan: Ahriman's Gift Aug 24, 2011 $9.99N/A (N/A/79%)0 .. 20,0000%00:00 (00:00)
64 Lethe - Episode One Aug 1, 2016 $14.99N/A (N/A)0 .. 20,0000%00:00 (00:00)
65 Headlander Jul 25, 2016 $19.99N/A (N/A/74%)100,000 .. 200,0000%00:00 (00:00)
66 Kohan II: Kings of War Aug 24, 2011 $9.99N/A (N/A/81%)20,000 .. 50,0000%00:00 (00:00)
67 Apocalypse: Party's Over May 30, 2016 $4.99N/A (N/A)0 .. 20,0000%00:00 (00:00)
68 Silent Storm Gold Edition Oct 2, 2013 $9.99N/A (N/A/83%)100,000 .. 200,0000%00:00 (00:00)
69 Warhammer 40,000: Dawn of War Winter Assault Aug 7, 2007 $12.9969% (90%)1,000,000 .. 2,000,0000.54%00:01 (00:00)
70 Planet of the Eyes Aug 24, 2015 $9.9969% (90%/66%)50,000 .. 100,0000%00:00 (00:00)
71 Weird Hero Nov 18, 2016 $2.99N/A (N/A)0 .. 20,0000%00:00 (00:00)
72 Explosionade Sep 23, 2015 $0.99N/A (N/A)20,000 .. 50,0000%00:00 (00:00)
73 Warrior Kings: Battles May 6, 2014 $9.99N/A (N/A/64%)0 .. 20,0000%00:00 (00:00)
74 Death's Hangover Jan 20, 2017 $4.99N/A (N/A)50,000 .. 100,0003.28%03:24 (02:15)
75 Fort Meow Jun 24, 2015 $7.9969% (90%)0 .. 20,0000%00:00 (00:00)
76 Flashpoint Campaigns: Red Storm Player's Edition Nov 21, 2014 $49.9969% (90%)0 .. 20,0000%00:00 (00:00)
77 CastleStorm Jul 29, 2013 $9.99N/A (N/A/73%)200,000 .. 500,0000%00:00 (00:00)
78 Avoid - Sensory Overload Apr 8, 2014 $4.99N/A (N/A)0 .. 20,0000%00:00 (00:00)
79 Darksiders Sep 23, 2010 N/AN/A (N/A/83%)20,000 .. 50,0000%00:00 (00:00)
80 Reverse Crawl Sep 24, 2015 $5.99N/A (N/A)50,000 .. 100,0000%00:00 (00:00)
81 MoonBase Commander Feb 6, 2014 $5.99N/A (N/A/77%)20,000 .. 50,0000%00:00 (00:00)
82 Command: Northern Inferno Oct 22, 2015 $19.99N/A (N/A)0 .. 20,0000%00:00 (00:00)
83 Zombo Buster Rising Oct 2, 2016 $1.99N/A (N/A)0 .. 20,0000%00:00 (00:00)
84 Spectromancer Feb 11, 2009 $9.9965% (89%)20,000 .. 50,0000%00:00 (00:00)
85 Codename: Panzers, Phase Two Feb 18, 2016 $14.99N/A (N/A/80%)20,000 .. 50,0000%00:00 (00:00)
86 Sneaky Sneaky Nov 12, 2014 $4.9965% (89%/63%)20,000 .. 50,0000%00:00 (00:00)
87 Sang-Froid - Tales of Werewolves Apr 5, 2013 FreeN/A (N/A/79%)200,000 .. 500,0000.41%00:01 (00:00)
88 Steel Rain Dec 3, 2015 $9.99N/A (N/A)0 .. 20,0000%00:00 (00:00)
89 Battlepillars Gold Edition Apr 28, 2014 $4.99N/A (N/A)20,000 .. 50,0000%00:00 (00:00)
90 Atom Zombie Smasher Mar 14, 2011 $9.99N/A (N/A/75%)200,000 .. 500,0001.04%00:06 (00:02)
91 Syrian Warfare Feb 21, 2017 $14.99N/A (N/A)20,000 .. 50,00012.5%02:10 (01:40)
92 Lethal VR Nov 8, 2016 $3.74N/A (N/A/66%)0 .. 20,0000%00:00 (00:00)
93 Tcheco in the Castle of Lucio Jun 22, 2015 $0.99N/A (N/A)50,000 .. 100,0000%00:00 (00:00)
94 The Fall May 30, 2014 $9.9962% (88%/76%)200,000 .. 500,0000%00:00 (00:00)
95 Blacksea Odyssey Jun 1, 2016 $9.99N/A (N/A/74%)20,000 .. 50,0000%00:00 (00:00)
96 Anodyne Mar 22, 2013 $9.99N/A (N/A/75%)100,000 .. 200,0000%00:00 (00:00)
97 Earn to Die 2 May 5, 2016 $4.99N/A (N/A)0 .. 20,0000%00:00 (00:00)
98 Amaranthine Apr 6, 2016 $2.99N/A (N/A)20,000 .. 50,0008.7%00:41 (00:27)
99 The Way May 20, 2016 $14.9962% (88%/67%)20,000 .. 50,0002.13%00:56 (00:18)
100 Greed Corp Dec 10, 2010 $9.99N/A (N/A/76%)200,000 .. 500,0001.1%00:24 (00:08)
101 Viking Squad Oct 4, 2016 $14.99N/A (N/A)0 .. 20,0000%00:00 (00:00)
102 Interloper May 21, 2015 $1N/A (N/A/77%)50,000 .. 100,0000%00:00 (00:00)
103 Super Furball Apr 21, 2015 $3.99N/A (N/A)0 .. 20,0000%00:00 (00:00)
104 Civilization IV: Warlords Apr 6, 2007 $4.99N/A (N/A/84%)1,000,000 .. 2,000,0000%00:00 (00:00)
105 Tron 2.0 Oct 10, 2014 $9.99N/A (N/A/84%)20,000 .. 50,0000%00:00 (00:00)
106 Spooky Cats Jun 4, 2015 $2.99N/A (N/A)20,000 .. 50,0000%00:00 (00:00)
107 Mr. Shifty Apr 13, 2017 $14.99N/A (N/A)200,000 .. 500,0003.68%00:09 (00:06)
108 Shadow Blade: Reload Aug 10, 2015 $14.99N/A (N/A/70%)20,000 .. 50,0000%00:00 (00:00)
109 Civilization IV: Warlords Apr 6, 2007 $4.99N/A (N/A/84%)1,000,000 .. 2,000,0000%00:00 (00:00)
110 Supreme Commander Sep 28, 2011 $14.99N/A (N/A/86%)500,000 .. 1,000,0000.5%00:01 (00:00)
111 Age of Wonders Shadow Magic Oct 2010 $2.49N/A (N/A/82%)100,000 .. 200,0000%00:00 (00:00)
112 Bullet Sorrow VR Apr 17, 2017 $19.99N/A (N/A)0 .. 20,0000%00:00 (00:00)
113 Neon Shadow Aug 25, 2016 $4.99N/A (N/A)0 .. 20,0000%00:00 (00:00)
114 Executive Assault Jul 17, 2015 $12.99N/A (N/A)50,000 .. 100,0000%00:00 (00:00)
115 Western 1849 Reloaded Feb 10, 2017 $4.99N/A (N/A)0 .. 20,0002.17%03:34 (01:11)
116 The Haunted: Hells Reach Oct 24, 2011 $8.99N/A (N/A/51%)50,000 .. 100,0000%00:00 (00:00)
117 Ghost Master Dec 21, 2006 $4.99N/A (N/A/81%)100,000 .. 200,0000%00:00 (00:00)
118 Meltdown Jun 5, 2014 $6.99N/A (N/A)50,000 .. 100,0000%00:00 (00:00)
119 N2O: Nitrous Oxide Jun 29, 2015 $4.99N/A (N/A)0 .. 20,0000%00:00 (00:00)
120 Time Rifters Oct 21, 2014 $9.99N/A (N/A)0 .. 20,00014.29%01:49 (01:10)
121 Star Ruler Sep 20, 2010 $9.99N/A (N/A)100,000 .. 200,0000%00:00 (00:00)
122 The Tiny Tale 2 Jan 30, 2015 $6.99N/A (N/A)0 .. 20,0000%00:00 (00:00)
123 VelocityUltra Dec 12, 2013 $9.99N/A (N/A)50,000 .. 100,0001.15%04:53 (01:37)
124 Arcane Sorcery Sep 15, 2015 $4.99N/A (N/A)0 .. 20,0000%00:00 (00:00)
125 Super Chibi Knight Jun 24, 2015 $4.99N/A (N/A)20,000 .. 50,0000%00:00 (00:00)
126 Rush for Berlin Gold Oct 29, 2009 $4.99N/A (N/A/76%)20,000 .. 50,0000%00:00 (00:00)
127 CRYPTARK Jun 20, 2017 $14.9953% (85%/80%)50,000 .. 100,0000%00:00 (00:00)
128 ShootMania Storm Apr 10, 2013 $19.9953% (85%/76%)50,000 .. 100,0000%00:00 (00:00)
129 Gurgamoth Feb 16, 2016 $4.99N/A (N/A)50,000 .. 100,0001.52%03:38 (01:12)
130 ENSLAVED: Odyssey to the West Premium Edition Oct 24, 2013 $19.9953% (85%/70%)200,000 .. 500,0000%00:00 (00:00)
131 Slash or Die Jun 3, 2016 $2.99N/A (N/A)50,000 .. 100,0005.15%03:48 (04:26)
132 Dustoff Heli Rescue Mar 6, 2015 $3.99N/A (N/A)20,000 .. 50,0000%00:00 (00:00)
133 Magnifico Dec 2, 2014 $4.99N/A (N/A)50,000 .. 100,0000%00:00 (00:00)
134 Ballistic Tanks Sep 20, 2016 $4.99N/A (N/A)0 .. 20,00012.5%02:18 (00:46)
135 The Men of Yoshiwara: Kikuya Oct 14, 2015 $29.99N/A (N/A)0 .. 20,0000%00:00 (00:00)
136 Last Knight: Rogue Rider Edition Oct 3, 2014 $7.99N/A (N/A)20,000 .. 50,0001.85%00:15 (00:05)
137 Child Of Ault Jan 24, 2017 $9.99N/A (N/A)0 .. 20,0000%00:00 (00:00)
138 Foresight Nov 28, 2014 $4.99N/A (N/A)0 .. 20,0000.98%00:16 (00:05)
139 Act of War: Direct Action Mar 12, 2008 $2.99N/A (N/A/82%)20,000 .. 50,0000%00:00 (00:00)
140 Yomi May 8, 2015 $14.9950% (84%)0 .. 20,0000%00:00 (00:00)
141 Fat Chicken Dec 4, 2014 $9.99N/A (N/A)0 .. 20,0000%00:00 (00:00)
142 Decisive Campaigns: The Blitzkrieg from Warsaw to Paris Jan 22, 2015 $39.99N/A (N/A)0 .. 20,0000%00:00 (00:00)
143 Galaxy Admirals Jan 17, 2017 $1.99N/A (N/A)50,000 .. 100,0000%00:00 (00:00)
144 Conflict Desert Storm May 28, 2012 $6.99N/A (N/A/56%)20,000 .. 50,0004.17%00:06 (00:02)
145 Advanced Tactics Gold Aug 15, 2014 $29.99N/A (N/A)0 .. 20,0000%00:00 (00:00)
146 Sudden Strike 2 Gold May 22, 2017 $5.99N/A (N/A)20,000 .. 50,0000%00:00 (00:00)
147 Rooks Keep Dec 5, 2014 $7.99N/A (N/A)20,000 .. 50,0001.89%00:01 (00:00)
148 Ace of Protectors Jun 27, 2016 $1.99N/A (N/A)0 .. 20,0000%00:00 (00:00)
149 Crush Your Enemies Jul 13, 2016 $9.99N/A (N/A/63%)20,000 .. 50,0000%00:00 (00:00)
150 Legend (1994) Nov 10, 2015 $4.99N/A (N/A)0 .. 20,0000%00:00 (00:00)
151 Battle Group 2 Jun 13, 2014 $7.99N/A (N/A)50,000 .. 100,0000%00:00 (00:00)
152 Disciples Sacred Lands Gold Oct 7, 2014 $7.99N/A (N/A)20,000 .. 50,0000%00:00 (00:00)
153 Delta Force 2 Jun 18, 2009 $4.99N/A (N/A)20,000 .. 50,0005.88%00:01 (00:00)
154 TY the Tasmanian Tiger 4 Sep 17, 2015 $5.99N/A (N/A)20,000 .. 50,0004.17%02:19 (00:46)
155 Bulletstorm: Full Clip Edition Apr 7, 2017 $39.9948% (83%/76%)20,000 .. 50,0000%00:00 (00:00)
156 Orbital Gear Aug 7, 2014 $9.99N/A (N/A/59%)200,000 .. 500,0001.75%03:32 (03:46)
157 Rack N Ruin Sep 1, 2015 $9.99N/A (N/A)20,000 .. 50,0000%00:00 (00:00)
158 Vector Strain Dec 9, 2015 $4.99N/A (N/A)20,000 .. 50,0000%00:00 (00:00)
159 GIBZ Apr 7, 2017 $7.9948% (83%)0 .. 20,0000%00:00 (00:00)
160 Eador: Genesis Oct 14, 2013 $5.99N/A (N/A)50,000 .. 100,0000%00:00 (00:00)
161 NOBUNAGA'S AMBITION: Sphere of Influence Sep 1, 2015 $59.99N/A (N/A/70%)20,000 .. 50,0000%00:00 (00:00)
162 htoL#NiQ: The Firefly Diary / htoL#NiQ-- May 18, 2016 $9.99N/A (N/A)20,000 .. 50,0000%00:00 (00:00)
163 Square Brawl Oct 22, 2015 $4.99N/A (N/A)0 .. 20,0000%00:00 (00:00)
164 PixelJunk Shooter Ultimate Oct 21, 2015 $9.99N/A (N/A)0 .. 20,0003.13%04:02 (01:20)
165 Crysis 2 - Maximum Edition Mar 22, 2011 $29.99N/A (N/A)100,000 .. 200,0000%00:00 (00:00)
166 After The End: The Harvest Jun 2, 2017 $4.99N/A (N/A)20,000 .. 50,0000%00:00 (00:00)
167 Age of Wonders Oct 2010 $5.9946% (82%)100,000 .. 200,0000%00:00 (00:00)
168 Fleet Command Oct 26, 2006 $9.99N/A (N/A)50,000 .. 100,0000%00:00 (00:00)
169 Defense Zone Jul 14, 2014 $2.99N/A (N/A)0 .. 20,0000%00:00 (00:00)
170 Enemy Mind Jun 6, 2014 $9.99N/A (N/A)200,000 .. 500,0000%00:00 (00:00)
171 Anomaly 2 May 15, 2013 $14.9944% (81%/77%)200,000 .. 500,0000.58%01:22 (00:27)
172 Perimeter Apr 3, 2014 $3.99N/A (N/A/77%)50,000 .. 100,0000%00:00 (00:00)
173 Junk Jack Nov 30, 2016 $14.99N/A (N/A)0 .. 20,00025%00:34 (00:17)
174 Shadow Ops: Red Mercury Jul 2, 2014 $6.9944% (81%/61%)20,000 .. 50,0000%00:00 (00:00)
175 rymdkapsel Jan 30, 2014 $7.99N/A (N/A/77%)0 .. 20,0000%00:00 (00:00)
176 In Verbis Virtus Apr 3, 2015 $4.99N/A (N/A)50,000 .. 100,0000%00:00 (00:00)
177 She Wants Me Dead May 13, 2016 $7.99N/A (N/A)0 .. 20,0000%00:00 (00:00)
178 Blade Arcus from Shining: Battle Arena Jul 28, 2016 $29.99N/A (N/A)0 .. 20,0000%00:00 (00:00)
179 Toadled Sep 22, 2016 $0.99N/A (N/A)50,000 .. 100,0000.43%00:11 (00:03)
180 Jim Power -The Lost Dimension Sep 30, 2015 $4.99N/A (N/A)0 .. 20,0000%00:00 (00:00)
181 ROD: Revolt Of Defense Aug 12, 2016 $0.99N/A (N/A)20,000 .. 50,0000%00:00 (00:00)
182 Supreme Ruler 2020 Gold Jul 9, 2009 $9.99N/A (N/A/65%)50,000 .. 100,0000%00:00 (00:00)
183 Dominions 3: The Awakening Sep 10, 2013 $19.99N/A (N/A/82%)20,000 .. 50,0000%00:00 (00:00)
184 Gun Metal Jan 16, 2014 $2.99N/A (N/A)200,000 .. 500,0000.62%01:53 (01:15)
185 Bloodsports.TV Mar 30, 2015 $2.4941% (80%/69%)50,000 .. 100,0001.54%01:47 (00:35)
186 Ninjahtic Jul 6, 2015 $1.9941% (80%)0 .. 20,0000%00:00 (00:00)
187 Zeno Clash 2 Apr 30, 2013 $14.9941% (80%)200,000 .. 500,0000.52%00:01 (00:00)
188 Tiki Man Jun 5, 2015 $0.99N/A (N/A)20,000 .. 50,0000%00:00 (00:00)
189 Making History: The Calm & the Storm Mar 13, 2007 $4.99N/A (N/A/70%)50,000 .. 100,0000%00:00 (00:00)
190 Legends of Callasia Jun 10, 2016 FreeN/A (N/A)50,000 .. 100,0000%00:00 (00:00)
191 Gatling Gears Aug 30, 2011 $9.99N/A (N/A)50,000 .. 100,0000%00:00 (00:00)
192 Run Rabbit Run Mar 31, 2016 $3.99N/A (N/A)0 .. 20,0000%00:00 (00:00)
193 Trigger Runners Mar 3, 2016 $1.99N/A (N/A)0 .. 20,0000%00:00 (00:00)
194 Weapon of Choice Sep 23, 2015 $4.99N/A (N/A)0 .. 20,0000%00:00 (00:00)
195 Interplanetary May 12, 2015 N/AN/A (N/A)100,000 .. 200,0000%00:00 (00:00)
196 Anomaly Warzone Earth Mobile Campaign Nov 6, 2013 $4.9941% (80%)100,000 .. 200,0000.73%02:19 (00:46)
197 Graviteam Tactics: Operation Star Feb 11, 2014 $29.99N/A (N/A)20,000 .. 50,0000%00:00 (00:00)
198 Monday Night Combat Jan 24, 2011 $4.99N/A (N/A/82%)200,000 .. 500,0000%00:00 (00:00)
199 Fate of the World Feb 28, 2011 $9.99N/A (N/A/70%)50,000 .. 100,0000%00:00 (00:00)
200 Age of Gladiators Feb 25, 2016 $9.99N/A (N/A)20,000 .. 50,0006.06%01:50 (01:13)
201 Blue Effect VR Feb 8, 2017 $7.49N/A (N/A)0 .. 20,0000%00:00 (00:00)
202 Umihara Kawase Shun: Steam Edition Nov 24, 2015 $11.99N/A (N/A)0 .. 20,0000%00:00 (00:00)
203 Vietnam 65 Mar 5, 2015 $9.99N/A (N/A/81%)20,000 .. 50,0000%00:00 (00:00)
204 Locoland May 28, 2015 $4.99N/A (N/A)0 .. 20,0000%00:00 (00:00)
205 Hail to the King: Deathbat Oct 30, 2014 $5.99N/A (N/A)0 .. 20,0000%00:00 (00:00)
206 Klang Sep 22, 2016 $14.99N/A (N/A/71%)0 .. 20,0000%00:00 (00:00)
207 Fantasy Wars Aug 6, 2010 $4.99N/A (N/A/67%)50,000 .. 100,0000%00:00 (00:00)
208 Nuclear Dawn Sep 26, 2011 $9.9939% (79%/71%)200,000 .. 500,0000.56%02:25 (00:48)
209 Caster Mar 19, 2009 $1.99N/A (N/A)200,000 .. 500,0000.4%02:03 (00:41)
210 Star Wolves 3: Civil War Mar 2, 2010 $4.99N/A (N/A)100,000 .. 200,0000%00:00 (00:00)
211 Demolition Inc. Sep 19, 2011 $5.99N/A (N/A)50,000 .. 100,0000%00:00 (00:00)
212 Star Realms Mar 8, 2016 FreeN/A (N/A)100,000 .. 200,0000%00:00 (00:00)
213 Ironcast Mar 26, 2015 $14.99N/A (N/A/75%)20,000 .. 50,0000%00:00 (00:00)
214 Starscape Nov 3, 2008 $7.9939% (79%)0 .. 20,0000%00:00 (00:00)
215 Fortified Feb 3, 2016 $14.99N/A (N/A)0 .. 20,0000%00:00 (00:00)
216 TASTEE: Lethal Tactics May 10, 2016 $14.99N/A (N/A)20,000 .. 50,0002.33%00:01 (00:00)
217 7,62 High Calibre Apr 30, 2014 $4.99N/A (N/A)50,000 .. 100,0000%00:00 (00:00)
218 David. Feb 16, 2015 $1.99N/A (N/A)50,000 .. 100,0000%00:00 (00:00)
219 Cultures - 8th Wonder of the World Mar 26, 2015 $0.49N/A (N/A)50,000 .. 100,0001.43%16:13 (05:24)
220 TRON RUN/r Feb 16, 2016 $19.9939% (79%)0 .. 20,0000%00:00 (00:00)
221 Conquest of Elysium 3 Oct 24, 2012 $9.99N/A (N/A)20,000 .. 50,0000%00:00 (00:00)
222 Zombie Party Jun 10, 2016 $9.9939% (79%)100,000 .. 200,00025.81%05:12 (05:12)
223 Protoshift Jan 15, 2016 $0.99N/A (N/A)0 .. 20,0000%00:00 (00:00)
224 Advent Rising Sep 14, 2006 $9.99N/A (N/A/70%)50,000 .. 100,0000%00:00 (00:00)
225 Battle Mages: Sign of Darkness Jul 24, 2014 $4.99N/A (N/A)0 .. 20,0000%00:00 (00:00)
226 Heroes of Might & Magic V: Hammers of Fate Oct 10, 2008 $9.99N/A (N/A/66%)100,000 .. 200,0000%00:00 (00:00)
227 The Legend of Dark Witch Dec 1, 2015 $4.99N/A (N/A)20,000 .. 50,0000%00:00 (00:00)
228 Dead Rising 2: Off the Record Oct 11, 2011 $19.99N/A (N/A/66%)200,000 .. 500,0000.56%02:04 (00:41)
229 Mold on Pizza Sep 25, 2015 $5.99N/A (N/A)0 .. 20,0000%00:00 (00:00)
230 A Blind Legend Apr 7, 2016 $6.9938% (78%)0 .. 20,0000%00:00 (00:00)
231 Battlezone May 11, 2017 $19.9938% (78%)0 .. 20,0000%00:00 (00:00)
232 Othello Mar 19, 2015 $9.99N/A (N/A)0 .. 20,0000%00:00 (00:00)
233 Pharaonic Apr 28, 2016 $14.99N/A (N/A)20,000 .. 50,0000%00:00 (00:00)
234 Curse of the Crescent Isle DX Aug 21, 2015 $4.9938% (78%)0 .. 20,0000%00:00 (00:00)
235 Aeon Command Jul 3, 2014 $2.99N/A (N/A)20,000 .. 50,0000%00:00 (00:00)
236 Making History II: The War of the World Aug 27, 2010 $14.99N/A (N/A/38%)20,000 .. 50,0000%00:00 (00:00)
237 Dangerous Waters Feb 7, 2006 $14.99N/A (N/A/82%)50,000 .. 100,0000%00:00 (00:00)
238 Envoy Mar 17, 2016 $4.99N/A (N/A)50,000 .. 100,0000.49%03:02 (01:00)
239 Hordelicious Jul 10, 2015 $3.9938% (78%)20,000 .. 50,0000%00:00 (00:00)
240 Deadly 30 Jan 8, 2014 $4.99N/A (N/A)100,000 .. 200,0001.36%02:53 (01:55)
241 Strike Suit Zero: Director's Cut Apr 8, 2014 $19.99N/A (N/A)20,000 .. 50,0000%00:00 (00:00)
242 Warlords Battlecry III Jan 22, 2016 $9.99N/A (N/A/73%)0 .. 20,0000%00:00 (00:00)
243 McDROID Sep 5, 2014 $9.99N/A (N/A)0 .. 20,0000%00:00 (00:00)
244 Painkiller Hell & Damnation Oct 31, 2012 $19.99N/A (N/A/64%)500,000 .. 1,000,0001.44%03:51 (01:55)
245 King of Dragon Pass Jul 28, 2015 $11.99N/A (N/A)50,000 .. 100,0002.22%05:16 (03:30)
246 Spirits of Xanadu Mar 26, 2015 $4.9936% (77%)20,000 .. 50,0005.56%03:26 (02:17)
247 Rocketbirds 2 Evolution Jan 26, 2017 $9.99N/A (N/A)0 .. 20,0000%00:00 (00:00)
248 Mysterium: A Psychic Clue Game Jan 12, 2017 $9.99N/A (N/A)50,000 .. 100,0000%00:00 (00:00)
249 Tank Destroyer Mar 9, 2017 $0.5N/A (N/A)20,000 .. 50,0005%01:14 (00:33)
250 Sky Gamblers: Storm Raiders Jan 7, 2015 $9.99N/A (N/A)0 .. 20,0000%00:00 (00:00)
251 PAC-MAN and the Ghostly Adventures Oct 29, 2013 $19.99N/A (N/A)0 .. 20,0000%00:00 (00:00)
252 Warhammer 40,000: Armageddon Nov 26, 2014 $39.99N/A (N/A/68%)20,000 .. 50,0000%00:00 (00:00)
253 A.R.E.S. Extinction Agenda EX Oct 3, 2014 $9.99N/A (N/A)0 .. 20,0000%00:00 (00:00)
254 Riddled Corpses Jun 2, 2015 $7.99N/A (N/A)20,000 .. 50,0000%00:00 (00:00)
255 Bet On Soldier Dec 5, 2014 $7.9936% (77%)20,000 .. 50,0000%00:00 (00:00)
256 The Political Machine 2016 Feb 4, 2016 $9.99N/A (N/A)100,000 .. 200,0001.56%00:54 (00:18)
257 BloodRayne Sep 14, 2006 $9.99N/A (N/A/65%)50,000 .. 100,0000%00:00 (00:00)
258 Z Jul 4, 2014 $6.99N/A (N/A)100,000 .. 200,0000.56%01:54 (00:38)
259 Zombie Killtime Aug 4, 2015 $1.99N/A (N/A)0 .. 20,0000%00:00 (00:00)
260 WARSHIFT Oct 12, 2016 $12.99N/A (N/A)20,000 .. 50,0000%00:00 (00:00)
261 Civil War II Jul 3, 2014 $39.99N/A (N/A)0 .. 20,0000%00:00 (00:00)
262 Battle Time Sep 29, 2016 $0.9935% (76%)20,000 .. 50,0000%00:00 (00:00)
263 Livelock Aug 30, 2016 $9.99N/A (N/A/73%)20,000 .. 50,0000%00:00 (00:00)
264 Rocket Knight May 11, 2010 $14.99N/A (N/A/63%)0 .. 20,0000%00:00 (00:00)
265 Corgi Warlock Dec 3, 2015 $1.99N/A (N/A)20,000 .. 50,0000%00:00 (00:00)
266 Heroes of Arca Feb 16, 2017 FreeN/A (N/A)0 .. 20,0000%00:00 (00:00)
267 Velocity 2X Aug 19, 2015 $19.99N/A (N/A)50,000 .. 100,0000%00:00 (00:00)
268 Monster Monpiece Mar 14, 2017 $19.99N/A (N/A)20,000 .. 50,0000%00:00 (00:00)
269 Olympia Rising Jul 23, 2015 $4.99N/A (N/A)20,000 .. 50,0000%00:00 (00:00)
270 Extravaganza Rising Jul 21, 2016 $5.99N/A (N/A)20,000 .. 50,0002.04%04:23 (01:27)
271 Star Hammer: The Vanguard Prophecy Jun 4, 2015 $19.99N/A (N/A/69%)0 .. 20,0000%00:00 (00:00)
272 Starchaser: Priestess of the Night Sky Jul 24, 2015 $9.99N/A (N/A)0 .. 20,0000%00:00 (00:00)
273 Chaser Jul 16, 2010 $4.99N/A (N/A/66%)100,000 .. 200,0000%00:00 (00:00)
274 Deadlings: Rotten Edition Nov 11, 2014 $3.99N/A (N/A)50,000 .. 100,0000%00:00 (00:00)
275 Cashtronauts Aug 31, 2016 $2.99N/A (N/A)0 .. 20,0000%00:00 (00:00)
276 AirMech Command Mar 8, 2017 $19.99N/A (N/A)0 .. 20,0000%00:00 (00:00)
277 Perimeter: Emperor's Testament May 22, 2014 $3.99N/A (N/A/72%)20,000 .. 50,0000%00:00 (00:00)
278 GEARGUNS Tank offensive Sep 20, 2016 $1.51N/A (N/A)20,000 .. 50,0001.79%00:10 (00:03)
279 CivCity: Rome Apr 6, 2007 $9.99N/A (N/A/67%)50,000 .. 100,0000%00:00 (00:00)
280 Zoo Empire Sep 3, 2015 $6.99N/A (N/A/59%)0 .. 20,0000%00:00 (00:00)
281 Hot Tin Roof: The Cat That Wore A Fedora Feb 20, 2015 $14.99N/A (N/A/66%)100,000 .. 200,0000%00:00 (00:00)
282 Pick a Hero Jun 9, 2016 $0.99N/A (N/A)0 .. 20,0000%00:00 (00:00)
283 Ubersoldier II Mar 25, 2014 $9.99N/A (N/A/62%)20,000 .. 50,0000%00:00 (00:00)
284 Fist Puncher Jun 21, 2013 $9.99N/A (N/A/73%)20,000 .. 50,0002.38%05:21 (01:47)
285 Smell Of Death Jul 4, 2016 $9.99N/A (N/A)0 .. 20,0000%00:00 (00:00)
286 Victory At Sea Aug 8, 2014 $7.49N/A (N/A)20,000 .. 50,0000%00:00 (00:00)
287 Commander: The Great War Jul 25, 2014 $29.99N/A (N/A)0 .. 20,0000%00:00 (00:00)
288 Albino Lullaby: Episode 1 Sep 14, 2015 $9.99N/A (N/A)20,000 .. 50,0000%00:00 (00:00)
289 Onechanbara Z2: Chaos Jun 2, 2016 $39.99N/A (N/A)0 .. 20,0000%00:00 (00:00)
290 Master Reboot Oct 29, 2013 $14.99N/A (N/A/59%)50,000 .. 100,0000%00:00 (00:00)
291 BossConstructor Oct 24, 2016 $14.99N/A (N/A)0 .. 20,0000%00:00 (00:00)
292 The Superfluous May 19, 2017 $4.99N/A (N/A)0 .. 20,0004.55%01:17 (00:25)
293 FIVE: Champions of Canaan Sep 27, 2016 $3.99N/A (N/A)0 .. 20,0000%00:00 (00:00)
294 Hunting Unlimited 2008 Jan 29, 2008 $9.99N/A (N/A)20,000 .. 50,0000%00:00 (00:00)
295 FEIST Jul 23, 2015 $9.99N/A (N/A)20,000 .. 50,0000%00:00 (00:00)
296 Auro: A Monster-Bumping Adventure Apr 13, 2016 $6.99N/A (N/A)0 .. 20,0000%00:00 (00:00)
297 LEGO Indiana Jones 2: The Adventure Continues Feb 18, 2010 $19.99N/A (N/A/66%)50,000 .. 100,0000%00:00 (00:00)
298 Divinity: Dragon Commander Aug 6, 2013 $39.99N/A (N/A)200,000 .. 500,0000%00:00 (00:00)
299 Sid Meiers Ace Patrol Aug 27, 2013 $4.99N/A (N/A)500,000 .. 1,000,0000%00:00 (00:00)
300 Bubsy Two-Fur Dec 17, 2015 $4.99N/A (N/A)0 .. 20,0000%00:00 (00:00)
301 Supreme Ruler Ultimate Oct 17, 2014 $19.9931% (74%)20,000 .. 50,00012.5%00:59 (00:19)
302 Vampire of the Sands Jul 17, 2015 $4.99N/A (N/A)20,000 .. 50,0000%00:00 (00:00)
303 Banzai Escape Feb 29, 2016 $5.99N/A (N/A)0 .. 20,0000%00:00 (00:00)
304 Making History: The Great War Jan 29, 2015 $29.99N/A (N/A)20,000 .. 50,0000%00:00 (00:00)
305 Phoning Home Feb 7, 2017 $4.99N/A (N/A/61%)20,000 .. 50,0006.45%03:17 (02:11)
306 VRZ: Torment May 18, 2017 $5.49N/A (N/A)0 .. 20,0000%00:00 (00:00)
307 Distant Worlds: Universe May 23, 2014 $59.99N/A (N/A/81%)50,000 .. 100,0000%00:00 (00:00)
308 TableTop Soccer Apr 22, 2016 $0.99N/A (N/A)0 .. 20,0000%00:00 (00:00)
309 Pike and Shot : Campaigns Aug 13, 2015 $39.99N/A (N/A)0 .. 20,0000%00:00 (00:00)
310 Cast of the Seven Godsends - Redux Jul 20, 2015 $9.9929% (73%)20,000 .. 50,0001.61%02:28 (00:49)
311 The Aquatic Adventure of the Last Human Jan 19, 2016 $9.99N/A (N/A/76%)0 .. 20,0000%00:00 (00:00)
312 Warp Mar 21, 2012 $9.99N/A (N/A)20,000 .. 50,0000%00:00 (00:00)
313 Death by Game Show Jan 22, 2016 $9.99N/A (N/A)20,000 .. 50,0000%00:00 (00:00)
314 King Arthur - The Role-playing Wargame Nov 24, 2009 $2.49N/A (N/A)200,000 .. 500,0000%00:00 (00:00)
315 Rex Rocket Aug 5, 2014 $4.99N/A (N/A)20,000 .. 50,0000%00:00 (00:00)
316 Viktor Jun 13, 2014 $7.99N/A (N/A)20,000 .. 50,0003.03%02:19 (00:46)
317 Rise & Shine Jan 13, 2017 $14.99N/A (N/A)50,000 .. 100,0000%00:00 (00:00)
318 Fatal Fight Jun 10, 2016 $2.99N/A (N/A)0 .. 20,0000%00:00 (00:00)
319 Lux Delux May 1, 2015 $9.99N/A (N/A)20,000 .. 50,0000%00:00 (00:00)
320 Civil War: Battle of Petersburg Feb 8, 2017 $0.99N/A (N/A)20,000 .. 50,0000%00:00 (00:00)
321 Retrovirus Jan 31, 2013 $9.99N/A (N/A/70%)20,000 .. 50,0000%00:00 (00:00)
322 Deadnaut Dec 8, 2014 $9.99N/A (N/A)20,000 .. 50,0000%00:00 (00:00)
323 Battle Fleet 2 Nov 20, 2014 $14.9928% (72%)20,000 .. 50,0000%00:00 (00:00)
324 Panzer Tactics HD May 22, 2014 $9.99N/A (N/A/69%)20,000 .. 50,0000%00:00 (00:00)
325 Lost Planet: Extreme Condition Jun 26, 2007 $14.99N/A (N/A/66%)200,000 .. 500,0000%00:00 (00:00)
326 Wyv and Keep: The Temple of the Lost Idol Aug 8, 2014 $14.99N/A (N/A)20,000 .. 50,0000%00:00 (00:00)
327 Airship Dragoon Aug 26, 2014 $9.99N/A (N/A)0 .. 20,0000%00:00 (00:00)
328 Gold Rush! Anniversary Nov 7, 2014 $5.99N/A (N/A)100,000 .. 200,0002.33%00:38 (00:33)
329 Cross of the Dutchman Sep 10, 2015 $8.99N/A (N/A/59%)20,000 .. 50,0000%00:00 (00:00)
330 There Came an Echo Feb 24, 2015 $14.99N/A (N/A/58%)20,000 .. 50,0002.7%01:16 (00:25)
331 Cuban Missile Crisis Mar 25, 2015 $4.9928% (72%)20,000 .. 50,0000%00:00 (00:00)
332 rooMaze Mar 3, 2017 $1.99N/A (N/A)20,000 .. 50,0000%00:00 (00:00)
333 Wildlife Park 2 - Crazy Zoo Jul 17, 2014 $3.99N/A (N/A)20,000 .. 50,0000%00:00 (00:00)
334 A.R.E.S.: Extinction Agenda Jan 19, 2011 $4.99N/A (N/A/68%)100,000 .. 200,0000%00:00 (00:00)
335 REDCON Apr 22, 2016 $5.99N/A (N/A)20,000 .. 50,0000%00:00 (00:00)
336 Smithy Jun 3, 2016 $3.99N/A (N/A)50,000 .. 100,0000%00:00 (00:00)
337 Jagged Alliance 2 - Wildfire Nov 16, 2012 $6.99N/A (N/A)200,000 .. 500,0006.17%06:15 (06:59)
338 Space Colony: Steam Edition Apr 30, 2015 $14.99N/A (N/A/74%)20,000 .. 50,0000%00:00 (00:00)
339 Tom Clancy's EndWar Feb 25, 2009 $9.99N/A (N/A/68%)50,000 .. 100,0000%00:00 (00:00)
340 Pongo May 11, 2015 $0.99N/A (N/A)50,000 .. 100,0002.3%00:31 (00:20)
341 The Last Federation Apr 18, 2014 $19.99N/A (N/A/72%)100,000 .. 200,0000%00:00 (00:00)
342 Zombie Camp Jul 31, 2016 $1.99N/A (N/A)0 .. 20,0000%00:00 (00:00)
343 Elliot Quest Nov 10, 2014 $9.99N/A (N/A)20,000 .. 50,0000%00:00 (00:00)
344 Sol 0: Mars Colonization Jan 15, 2016 $3.99N/A (N/A)20,000 .. 50,0000%00:00 (00:00)
345 BitMaster Oct 12, 2016 $2.99N/A (N/A)100,000 .. 200,0000%00:00 (00:00)
346 Disney Planes Oct 6, 2014 $19.99N/A (N/A)0 .. 20,0000%00:00 (00:00)
347 Collapse Apr 11, 2014 $19.99N/A (N/A)50,000 .. 100,0000%00:00 (00:00)
348 Space Food Truck Mar 25, 2016 $9.99N/A (N/A)0 .. 20,0000%00:00 (00:00)
349 Crazy Forest Jul 6, 2016 $4.99N/A (N/A)100,000 .. 200,0001.25%01:53 (01:15)
350 Strategy & Tactics: Wargame Collection Apr 22, 2016 $9.99N/A (N/A)20,000 .. 50,00010.13%04:35 (04:36)
351 Incandescent Jun 30, 2015 $0.49N/A (N/A)20,000 .. 50,0000.87%01:32 (00:30)
352 Elven Legacy Apr 7, 2009 $4.9925% (70%/71%)50,000 .. 100,0000%00:00 (00:00)
353 Quick Slick Deadly Sep 21, 2015 $0.49N/A (N/A)20,000 .. 50,0000%00:00 (00:00)
354 Warrior Kings Apr 24, 2014 $9.99N/A (N/A/73%)0 .. 20,0000%00:00 (00:00)
355 1775: Rebellion Sep 29, 2016 $24.99N/A (N/A)0 .. 20,0000%00:00 (00:00)
356 Heaven Forest NIGHTS Mar 14, 2017 $0.69N/A (N/A)100,000 .. 200,0002%03:15 (02:52)
357 Guns n Zombies Oct 30, 2014 $7.99N/A (N/A)100,000 .. 200,0000.84%00:02 (00:00)
358 The Nightmare Cooperative Jul 16, 2014 $4.99N/A (N/A)50,000 .. 100,0001.72%03:58 (01:19)
359 The Living Dungeon Nov 2, 2015 $12.99N/A (N/A)0 .. 20,0000%00:00 (00:00)
360 Zombie City Defense 2 Aug 19, 2016 $9.99N/A (N/A)0 .. 20,0000%00:00 (00:00)
361 ManaCollect Apr 17, 2015 $6.99N/A (N/A)0 .. 20,0000%00:00 (00:00)
362 YAIBA: NINJA GAIDEN Z Mar 21, 2014 $29.99N/A (N/A/49%)20,000 .. 50,0000%00:00 (00:00)
363 Spud's Quest Jul 31, 2014 $7.99N/A (N/A)0 .. 20,0000%00:00 (00:00)
364 Toren May 11, 2015 $9.99N/A (N/A/57%)50,000 .. 100,0004.94%01:13 (01:36)
365 Sorcerer King Jul 16, 2015 $9.9922% (68%/75%)20,000 .. 50,0000%00:00 (00:00)
366 Pigmentone Jul 8, 2016 $1.99N/A (N/A)0 .. 20,00030%03:32 (02:31)
367 Theatre of War 2: Africa 1943 Jul 9, 2010 $4.9922% (68%/63%)100,000 .. 200,0000%00:00 (00:00)
368 The Hive Aug 25, 2016 $9.99N/A (N/A)20,000 .. 50,0000%00:00 (00:00)
369 Brigade E5: New Jagged Union Apr 30, 2014 $3.99N/A (N/A/41%)20,000 .. 50,0000%00:00 (00:00)
370 RISK: Factions Mar 8, 2011 $9.9922% (68%/77%)50,000 .. 100,0000%00:00 (00:00)
371 Revolution Under Siege Gold Jul 2, 2015 $24.9922% (68%)0 .. 20,0000%00:00 (00:00)
372 Kill The Plumber Dec 31, 2015 $4.9922% (68%)0 .. 20,0000%00:00 (00:00)
373 FIVE: Guardians of David Nov 24, 2015 $9.99N/A (N/A/66%)20,000 .. 50,0000%00:00 (00:00)
374 Fair Strike Apr 23, 2015 $3.99N/A (N/A/56%)0 .. 20,0000%00:00 (00:00)
375 Stonerid Aug 15, 2014 $4.99N/A (N/A)50,000 .. 100,0000%00:00 (00:00)
376 Scourge: Outbreak Apr 2, 2014 $7.99N/A (N/A)100,000 .. 200,0000%00:00 (00:00)
377 Survivor Squad: Gauntlets Nov 16, 2015 $4.99N/A (N/A)20,000 .. 50,0004.17%00:09 (00:03)
378 Nomad Fleet Apr 19, 2016 $9.99N/A (N/A)0 .. 20,0008.33%04:04 (01:21)
379 Zafehouse: Diaries Sep 6, 2013 $1.99N/A (N/A)50,000 .. 100,0000%00:00 (00:00)
380 Men of War: Condemned Heroes Apr 12, 2012 $7.99N/A (N/A/57%)100,000 .. 200,0000%00:00 (00:00)
381 Chainsaw Warrior Oct 7, 2013 $4.99N/A (N/A)50,000 .. 100,0000%00:00 (00:00)
382 Alea Jacta Est Nov 4, 2014 $24.99N/A (N/A)0 .. 20,0000%00:00 (00:00)
383 Sengoku Sep 15, 2011 $9.99N/A (N/A/70%)100,000 .. 200,0000%00:00 (00:00)
384 Toy Odyssey: The Lost and Found Sep 20, 2016 $14.99N/A (N/A/66%)100,000 .. 200,0001.41%00:01 (00:00)
385 Royal Defense Nov 10, 2014 $4.99N/A (N/A)50,000 .. 100,0004.19%04:10 (03:48)
386 Mad Combat Marines Jul 13, 2016 $0.99N/A (N/A)20,000 .. 50,0000%00:00 (00:00)
387 Bedlam Oct 13, 2015 $12.99N/A (N/A/54%)100,000 .. 200,0002.2%03:43 (02:28)
388 Infinity Runner Jul 14, 2014 $6.9920% (66%/56%)0 .. 20,0000%00:00 (00:00)
389 Disney Pirates of the Caribbean: At Worlds End Oct 6, 2014 $19.99N/A (N/A)0 .. 20,0000%00:00 (00:00)
390 Assassins Creed Chronicles: India Jan 12, 2016 $9.99N/A (N/A)20,000 .. 50,0000%00:00 (00:00)
391 Marauder Apr 4, 2014 $9.9920% (66%)20,000 .. 50,0000%00:00 (00:00)
392 7th Legion Oct 23, 2014 $6.99N/A (N/A)0 .. 20,0000%00:00 (00:00)
393 UnSummoning: the Spectral Horde Dec 21, 2015 $3.99N/A (N/A)0 .. 20,0000%00:00 (00:00)
394 8-Bit Commando Jun 2, 2014 $2.99N/A (N/A)50,000 .. 100,0000%00:00 (00:00)
395 1849 May 8, 2014 $14.99N/A (N/A)20,000 .. 50,0000%00:00 (00:00)
396 Commander Cool 2 Dec 17, 2015 $2.99N/A (N/A)20,000 .. 50,0000%00:00 (00:00)
397 Sky To Fly: Faster Than Wind Mar 25, 2016 $3.99N/A (N/A)0 .. 20,0000%00:00 (00:00)
398 Spirit of War Mar 12, 2015 $9.99N/A (N/A)20,000 .. 50,0000%00:00 (00:00)
399 March of the Eagles Feb 18, 2013 $19.99N/A (N/A/71%)50,000 .. 100,0000%00:00 (00:00)
400 Ground Breakers Jun 15, 2016 $4.99N/A (N/A)0 .. 20,0000%00:00 (00:00)
401 The Seven Years War (1756-1763) Oct 30, 2015 $7.99N/A (N/A)0 .. 20,0000%00:00 (00:00)
402 Hunters Of The Dead Sep 4, 2014 $4.99N/A (N/A)20,000 .. 50,0000%00:00 (00:00)
403 Zoo Rampage Jul 9, 2014 $3.99N/A (N/A)0 .. 20,0000%00:00 (00:00)
404 Malebolgia May 6, 2015 $12.99N/A (N/A)0 .. 20,0000%00:00 (00:00)
405 Kaiju-A-GoGo Apr 23, 2015 $9.9919% (65%)20,000 .. 50,0000%00:00 (00:00)
406 Theatre of War 2: Kursk 1943 Jul 9, 2010 $4.99N/A (N/A)50,000 .. 100,0000%00:00 (00:00)
407 Fallen Enchantress Oct 23, 2012 $9.9919% (65%/78%)100,000 .. 200,0000%00:00 (00:00)
408 Platypus II Aug 15, 2014 $6.99N/A (N/A)200,000 .. 500,0000.33%04:29 (01:29)
409 Frozen Synapse Prime Nov 14, 2014 $24.99N/A (N/A/83%)100,000 .. 200,0000%00:00 (00:00)
410 My Super Tower 2 Jan 27, 2017 $0.99N/A (N/A)0 .. 20,0005%00:01 (00:00)
411 Zombie Tycoon 2: Brainhov's Revenge Dec 9, 2013 $4.99N/A (N/A)50,000 .. 100,0000%00:00 (00:00)
412 Devil's Dare Oct 21, 2014 $12.99N/A (N/A)20,000 .. 50,0000%00:00 (00:00)
413 Battle Worlds: Kronos Nov 4, 2013 $19.9918% (64%/71%)20,000 .. 50,0000%00:00 (00:00)
414 Revenge of Roger Rouge Apr 22, 2016 $0.99N/A (N/A)20,000 .. 50,0005.51%04:45 (04:36)
415 Jagged Alliance: Crossfire Aug 24, 2012 $14.99N/A (N/A/63%)100,000 .. 200,0000%00:00 (00:00)
416 Warlock 2: The Exiled Apr 10, 2014 $19.9918% (64%/73%)50,000 .. 100,0000%00:00 (00:00)
417 Beasts Battle Jun 15, 2016 $1.99N/A (N/A)0 .. 20,0000%00:00 (00:00)
418 SPACECOM Sep 17, 2014 $9.9918% (64%/68%)100,000 .. 200,0000%00:00 (00:00)
419 Urban Pirate Jun 17, 2016 $6.99N/A (N/A)0 .. 20,0000%00:00 (00:00)
420 Link Apr 22, 2016 $4.99N/A (N/A)0 .. 20,0000%00:00 (00:00)
421 Rise: Battle Lines Nov 17, 2015 $5.99N/A (N/A)0 .. 20,0006.25%02:53 (01:55)
422 A Game of Dwarves Oct 23, 2012 $9.99N/A (N/A/60%)100,000 .. 200,0000%00:00 (00:00)
423 War, the Game Jan 12, 2015 $6.9917% (63%/65%)20,000 .. 50,0000%00:00 (00:00)
424 Pixel Boy and the Ever Expanding Dungeon May 30, 2014 $0.99N/A (N/A)20,000 .. 50,0000%00:00 (00:00)
425 Will Fight for Food: Super Actual Sellout: Game of the Hour Apr 22, 2015 $5.99N/A (N/A)20,000 .. 50,0000%00:00 (00:00)
426 Desert Ashes Nov 10, 2014 $4.99N/A (N/A)20,000 .. 50,0000%00:00 (00:00)
427 Bombshell Jan 29, 2016 $34.99N/A (N/A)0 .. 20,0000%00:00 (00:00)
428 Sorcerer King: Rivals Sep 22, 2016 $14.99N/A (N/A)50,000 .. 100,0000%00:00 (00:00)
429 Port Royale 2 Jun 16, 2009 $4.99N/A (N/A/75%)50,000 .. 100,0000%00:00 (00:00)
430 Hyperspace Pinball Sep 30, 2015 $2.99N/A (N/A)0 .. 20,0000%00:00 (00:00)
431 Freight Tycoon Inc. Apr 3, 2014 $4.99N/A (N/A)20,000 .. 50,0000%00:00 (00:00)
432 Spice Road Apr 24, 2014 $19.99N/A (N/A)0 .. 20,0000%00:00 (00:00)
433 Goblin Defenders: Steeln Wood Nov 23, 2015 $2.99N/A (N/A)20,000 .. 50,0001.96%01:47 (00:35)
434 4089: Ghost Within Jan 9, 2015 $5.9917% (62%)0 .. 20,0000%00:00 (00:00)
435 Supreme Ruler: Cold War Jul 29, 2011 $9.99N/A (N/A/63%)20,000 .. 50,0000%00:00 (00:00)
436 Disney Epic Mickey 2: The Power of Two Oct 6, 2014 $19.99N/A (N/A)20,000 .. 50,0000%00:00 (00:00)
437 Battleplan: American Civil War Jul 4, 2014 $9.99N/A (N/A/66%)100,000 .. 200,0000.83%00:17 (00:11)
438 The Few Jun 18, 2014 $7.99N/A (N/A)20,000 .. 50,0000%00:00 (00:00)
439 Legions of Steel Jul 16, 2015 $19.99N/A (N/A/64%)0 .. 20,0000%00:00 (00:00)
440 Call of Duty: Black Ops - Mac Edition Sep 27, 2012 $19.9915% (61%)50,000 .. 100,0000%00:00 (00:00)
441 Men of War: Vietnam Sep 8, 2011 $7.9915% (61%/68%)200,000 .. 500,0001.56%00:27 (00:09)
442 E.T. Armies Mar 3, 2016 $14.99N/A (N/A/54%)20,000 .. 50,0000%00:00 (00:00)
443 Quarantine May 24, 2017 $9.99N/A (N/A)0 .. 20,0000%00:00 (00:00)
444 To End All Wars Aug 29, 2014 $39.99N/A (N/A/71%)0 .. 20,0000%00:00 (00:00)
445 Purgatory Jun 22, 2016 $0.99N/A (N/A)200,000 .. 500,0001.25%03:16 (04:12)
446 Flashback Oct 1, 2013 $9.99N/A (N/A)20,000 .. 50,0000%00:00 (00:00)
447 Defend Your Crypt Jul 21, 2016 $2.99N/A (N/A)0 .. 20,0000%00:00 (00:00)
448 Skyshine's BEDLAM Sep 16, 2015 $19.99N/A (N/A/67%)20,000 .. 50,0000%00:00 (00:00)
449 DreamBreak Jul 21, 2016 $6.99N/A (N/A/46%)0 .. 20,0004.35%03:06 (01:02)
450 Close Combat - Panthers in the Fog May 14, 2015 $39.99N/A (N/A)0 .. 20,0000%00:00 (00:00)
451 Code of Princess Apr 14, 2016 $14.9914% (60%/53%)0 .. 20,0000%00:00 (00:00)
452 Overruled! Sep 15, 2015 $12.99N/A (N/A)20,000 .. 50,0000%00:00 (00:00)
453 Grim Seventh Jan 20, 2017 FreeN/A (N/A)0 .. 20,0000%00:00 (00:00)
454 Patrician IV - Steam Special Edition Sep 17, 2010 $14.99N/A (N/A/66%)200,000 .. 500,0000%00:00 (00:00)
455 Woolfe - The Red Hood Diaries Mar 17, 2015 $9.99N/A (N/A/55%)50,000 .. 100,0000%00:00 (00:00)
456 Disciples III - Renaissance Steam Special Edition Jul 16, 2010 $14.99N/A (N/A/56%)200,000 .. 500,0000%00:00 (00:00)
457 7 Grand Steps: What Ancients Begat Jun 7, 2013 $19.99N/A (N/A)100,000 .. 200,0000%00:00 (00:00)
458 Life in Bunker Feb 25, 2016 $15.99N/A (N/A)0 .. 20,0000%00:00 (00:00)
459 Stay Dead Evolution Feb 4, 2015 $5.99N/A (N/A)20,000 .. 50,0000%00:00 (00:00)
460 Hybrid Wars Sep 29, 2016 $17.99N/A (N/A/54%)0 .. 20,0000%00:00 (00:00)
461 Prospekt Feb 18, 2016 $9.99N/A (N/A)20,000 .. 50,0004.76%00:20 (00:06)
462 Antisquad May 22, 2014 $5.99N/A (N/A)50,000 .. 100,0000%00:00 (00:00)
463 Merchants of Kaidan Nov 10, 2014 $14.99N/A (N/A)100,000 .. 200,0000%00:00 (00:00)
464 Ninjahtic Mind Tricks Jul 16, 2015 $1.99N/A (N/A)0 .. 20,0000%00:00 (00:00)
465 Armada 2526 Gold Edition Feb 28, 2013 $19.9913% (59%/66%)50,000 .. 100,0000%00:00 (00:00)
466 Ceres Oct 16, 2015 $19.99N/A (N/A/74%)0 .. 20,0000%00:00 (00:00)
467 Super Helmets on Fire DX Ultra Edition Plus Alpha Feb 15, 2016 $0.99N/A (N/A)0 .. 20,0000%00:00 (00:00)
468 Sir! I'd Like To Report A Bug! Oct 19, 2015 $1.99N/A (N/A)0 .. 20,0000%00:00 (00:00)
469 VR Journey Dec 15, 2016 $0.5N/A (N/A)20,000 .. 50,0000.89%00:04 (00:01)
470 Prophour23 Oct 22, 2014 $9.99N/A (N/A)20,000 .. 50,0000%00:00 (00:00)
471 Woodle Tree 2: Worlds Sep 16, 2016 $3.99N/A (N/A)20,000 .. 50,0002%00:01 (00:00)
472 Adventure World Aug 2, 2016 $4.99N/A (N/A)0 .. 20,0000%00:00 (00:00)
473 Unearthed: Trail of Ibn Battuta - Episode 1 - Gold Edition Jan 3, 2014 $4.9912% (58%)20,000 .. 50,0000%00:00 (00:00)
474 Colonial Conquest Jul 28, 2015 $9.99N/A (N/A)0 .. 20,0000%00:00 (00:00)
475 Check vs Mate Aug 16, 2012 $19.9912% (58%/69%)0 .. 20,0000%00:00 (00:00)
476 Cemetery Warrior 3 Feb 3, 2017 $0.99N/A (N/A)50,000 .. 100,0000%00:00 (00:00)
477 Wanderlust Adventures Aug 10, 2015 $9.99N/A (N/A)20,000 .. 50,0000%00:00 (00:00)
478 Heavy Fire: Afghanistan Aug 15, 2014 $2.99N/A (N/A)20,000 .. 50,0000%00:00 (00:00)
479 Gates of Horizon Dec 18, 2014 $9.9912% (57%)0 .. 20,0000%00:00 (00:00)
480 Rise of Venice Sep 27, 2013 $19.99N/A (N/A/66%)50,000 .. 100,0004%33:26 (11:08)
481 Delve Deeper Sep 24, 2010 $4.99N/A (N/A)50,000 .. 100,0000%00:00 (00:00)
482 Gnumz: Masters of Defense Dec 21, 2015 $4.99N/A (N/A)20,000 .. 50,0001.4%02:45 (02:11)
483 Defence to death May 11, 2017 $1.99N/A (N/A)50,000 .. 100,0000%00:00 (00:00)
484 Abalone Apr 23, 2014 $4.99N/A (N/A)0 .. 20,0000%00:00 (00:00)
485 Horizon Feb 6, 2014 $29.99N/A (N/A)50,000 .. 100,0000%00:00 (00:00)
486 BC Kings Jun 16, 2009 $4.99N/A (N/A)20,000 .. 50,0000%00:00 (00:00)
487 Pain Train Jan 11, 2017 $0.99N/A (N/A)20,000 .. 50,0002.11%04:37 (02:07)
488 Wickland Feb 6, 2015 $0.99N/A (N/A)100,000 .. 200,0000%00:00 (00:00)
489 Tic-Toc-Tower Sep 28, 2015 $2.99N/A (N/A)0 .. 20,0000%00:00 (00:00)
490 Aegis Oct 6, 2016 $2.99N/A (N/A)0 .. 20,0000%00:00 (00:00)
491 Nightside Aug 6, 2015 $9.99N/A (N/A)20,000 .. 50,0000%00:00 (00:00)
492 The Stalin Subway Sep 19, 2014 $3.99N/A (N/A)20,000 .. 50,0003.45%01:17 (00:25)
493 Royal Bounty HD Aug 10, 2015 $2.99N/A (N/A)0 .. 20,0000%00:00 (00:00)
494 Armada 2526 Apr 8, 2011 $14.99N/A (N/A/66%)20,000 .. 50,0000%00:00 (00:00)
495 Story Of the Survivor Feb 16, 2016 $4.99N/A (N/A)50,000 .. 100,0000%00:00 (00:00)
496 The Settlers 7: Paths to a Kingdom: Deluxe Gold Edition Mar 10, 2011 $19.99N/A (N/A/79%)100,000 .. 200,0000%00:00 (00:00)
497 Urja Jan 9, 2015 $9.99N/A (N/A)20,000 .. 50,0000%00:00 (00:00)
498 Smugglers 5 Apr 11, 2014 $9.99N/A (N/A)20,000 .. 50,0000%00:00 (00:00)
499 Marvel: Ultimate Alliance 2 Jul 26, 2016 $39.99N/A (N/A)0 .. 20,0000%00:00 (00:00)
500 Scapeland Mar 31, 2016 $3.99N/A (N/A)0 .. 20,0000%00:00 (00:00)
501 Biodrone Battle Jul 16, 2015 $1.99N/A (N/A)100,000 .. 200,0000%00:00 (00:00)
502 The Campaign Series: Fall Weiss May 30, 2014 $14.99N/A (N/A)20,000 .. 50,0002.33%00:01 (00:00)
503 Crusaders: Thy Kingdom Come Oct 8, 2009 $9.99N/A (N/A)20,000 .. 50,0000%00:00 (00:00)
504 Meridian: New World Sep 26, 2014 $6.99N/A (N/A/43%)50,000 .. 100,0000%00:00 (00:00)
505 MDK2 HD Jul 30, 2012 $14.999% (52%/73%)0 .. 20,0000%00:00 (00:00)
506 Dusty Revenge:Co-Op Edition Feb 17, 2014 $14.99N/A (N/A)100,000 .. 200,0001.45%00:03 (00:01)
507 Guncraft Aug 9, 2013 $14.99N/A (N/A/73%)100,000 .. 200,0000%00:00 (00:00)
508 PeriAreion Feb 19, 2015 $5.99N/A (N/A)0 .. 20,0000%00:00 (00:00)
509 MinosMaze - The Minotaur's Labyrinth May 1, 2017 $4.99N/A (N/A)0 .. 20,0000%00:00 (00:00)
510 Toy Soldiers: War Chest Aug 12, 2015 $3.748% (50%/60%)0 .. 20,0000%00:00 (00:00)
511 Albedo: Eyes from Outer Space Apr 10, 2015 $14.99N/A (N/A/66%)50,000 .. 100,0000%00:00 (00:00)
512 Megamagic: Wizards of the Neon Age Apr 20, 2016 $9.99N/A (N/A/67%)20,000 .. 50,0003.51%00:52 (00:34)
513 No Pineapple Left Behind Feb 18, 2016 $9.99N/A (N/A/59%)0 .. 20,0000%00:00 (00:00)
514 Kidnapped Aug 4, 2015 $2.99N/A (N/A)100,000 .. 200,0000%00:00 (00:00)
515 Weather Lord: The Successor's Path May 7, 2015 $4.99N/A (N/A)0 .. 20,0000%00:00 (00:00)
516 Odd||Even Apr 6, 2016 $0.99N/A (N/A)20,000 .. 50,0000%00:00 (00:00)
517 HitBox Jan 30, 2017 FreeN/A (N/A)0 .. 20,0000%00:00 (00:00)
518 Warhammer: Arcane Magic Mar 3, 2016 $3.997% (49%)0 .. 20,0000%00:00 (00:00)
519 Z Steel Soldiers Aug 1, 2014 $12.99N/A (N/A)50,000 .. 100,0000%00:00 (00:00)
520 Aggression: Europe Under Fire Apr 9, 2014 $9.99N/A (N/A)0 .. 20,0000%00:00 (00:00)
521 Synonymy Mar 5, 2015 $1.99N/A (N/A)0 .. 20,0000%00:00 (00:00)
522 Rubber and Lead Sep 4, 2015 $4.99N/A (N/A)20,000 .. 50,0000%00:00 (00:00)
523 Star Traders: 4X Empires Dec 16, 2014 $9.99N/A (N/A)0 .. 20,0000%00:00 (00:00)
524 ALONE IN SPACE Feb 22, 2016 $9.99N/A (N/A)0 .. 20,0000%00:00 (00:00)
525 Hero Generations Apr 10, 2015 $5.996% (47%)20,000 .. 50,0000%00:00 (00:00)
526 Chronostorm: Siberian Border Nov 20, 2015 $0.99N/A (N/A)0 .. 20,0000%00:00 (00:00)
527 Blasting Agent: Ultimate Edition Aug 17, 2016 $2.99N/A (N/A)0 .. 20,0005.56%04:49 (01:36)
528 Crossfire: Dungeons May 21, 2015 $3.99N/A (N/A)0 .. 20,0000%00:00 (00:00)
529 Disposable Heroes Mar 22, 2016 $4.99N/A (N/A)0 .. 20,0002.94%02:04 (00:41)
530 Hell Nov 13, 2014 $29.99N/A (N/A)0 .. 20,0000%00:00 (00:00)
531 Commander: Conquest of the Americas Jul 30, 2010 $9.99N/A (N/A/68%)50,000 .. 100,0000%00:00 (00:00)
532 The Stalin Subway: Red Veil Oct 24, 2014 $2.99N/A (N/A)20,000 .. 50,0003.03%01:17 (00:25)
533 Castle Werewolf 3D Feb 7, 2017 $2.99N/A (N/A)50,000 .. 100,0008.02%04:01 (03:34)
534 Battle Chess: Game of Kings Dec 11, 2015 $29.99N/A (N/A)0 .. 20,0000%00:00 (00:00)
535 Magic Quest May 6, 2016 $1.99N/A (N/A)50,000 .. 100,0000%00:00 (00:00)
536 World War 2: Time of Wrath Jun 6, 2014 $4.99N/A (N/A)20,000 .. 50,0000%00:00 (00:00)
537 Carrier Command: Gaea Mission Sep 28, 2012 $32.99N/A (N/A/60%)200,000 .. 500,0000%00:00 (00:00)
538 Redemption: Saints And Sinners Nov 18, 2016 $0.995% (45%)50,000 .. 100,0000%00:00 (00:00)
539 The Bluecoats: North vs South Feb 2, 2015 $4.995% (45%)20,000 .. 50,0000%00:00 (00:00)
540 Impire Feb 14, 2013 $19.995% (44%/45%)100,000 .. 200,0000%00:00 (00:00)
541 DUNGEONS - Steam Special Edition Feb 10, 2011 $9.995% (44%/65%)200,000 .. 500,0000%00:00 (00:00)
542 Island Defense Jul 23, 2015 $1.99N/A (N/A)50,000 .. 100,0000%00:00 (00:00)
543 Skyward Collapse May 23, 2013 $4.99N/A (N/A/64%)100,000 .. 200,0000%00:00 (00:00)
544 Pride of Nations Jun 7, 2011 $19.99N/A (N/A/70%)20,000 .. 50,0000%00:00 (00:00)
545 Sword of the Stars II: Enhanced Edition Nov 30, 2012 $19.99N/A (N/A/65%)100,000 .. 200,0000%00:00 (00:00)
546 Rulers of Nations Jul 16, 2014 $19.994% (42%/63%)0 .. 20,0000%00:00 (00:00)
547 Samudai Feb 9, 2015 $2.99N/A (N/A)20,000 .. 50,0000%00:00 (00:00)
548 Heavy Fire: Shattered Spear Oct 23, 2015 $3.99N/A (N/A)0 .. 20,0000%00:00 (00:00)
549 Burstfire Sep 24, 2015 N/AN/A (N/A)50,000 .. 100,0000%00:00 (00:00)
550 Nux Aug 15, 2014 $6.99N/A (N/A)200,000 .. 500,0000.3%04:03 (01:21)
551 The Entente Gold Jun 16, 2014 $1.99N/A (N/A)50,000 .. 100,0000%00:00 (00:00)
552 Devils & Demons Oct 6, 2015 $9.99N/A (N/A)20,000 .. 50,0000%00:00 (00:00)
553 Lost in Paradise Aug 20, 2015 $2.99N/A (N/A)20,000 .. 50,0000%00:00 (00:00)
554 Hydraulic Empire Jul 31, 2015 $7.99N/A (N/A)0 .. 20,0000%00:00 (00:00)
555 Infection: Humanity's Last Gasp May 26, 2016 $9.99N/A (N/A)0 .. 20,0000%00:00 (00:00)
556 Control Craft 2 Feb 15, 2016 $2.99N/A (N/A)0 .. 20,0006.9%02:34 (01:10)
557 Dead But Alive! Southern England Oct 2, 2015 $14.99N/A (N/A)0 .. 20,0000%00:00 (00:00)
558 R.I.P.D.: The Game Jul 16, 2013 $9.994% (40%)20,000 .. 50,0002.86%05:16 (01:45)
559 Strategic War in Europe Mar 21, 2014 $14.99N/A (N/A)20,000 .. 50,0000%00:00 (00:00)
560 Pain Train 2 Mar 16, 2017 $6.99N/A (N/A)0 .. 20,0006.45%05:19 (03:32)
561 The Kings' Crusade Oct 8, 2010 $9.994% (40%/71%)50,000 .. 100,0000%00:00 (00:00)
562 Wave of Darkness Nov 5, 2015 $29.99N/A (N/A)0 .. 20,0000%00:00 (00:00)
563 Dark Matter Oct 17, 2013 $9.99N/A (N/A)20,000 .. 50,0000%00:00 (00:00)
564 Gratuitous Space Battles 2 Apr 16, 2015 $9.99N/A (N/A)20,000 .. 50,0000%00:00 (00:00)
565 Dungeons - The Dark Lord Sep 27, 2011 $19.99N/A (N/A/72%)100,000 .. 200,0000%00:00 (00:00)
566 Zombie Apocalypse: Escape The Undead City Jun 17, 2016 $0.5N/A (N/A)0 .. 20,0000%00:00 (00:00)
567 Risk Jun 10, 2013 $9.99N/A (N/A)20,000 .. 50,0000%00:00 (00:00)
568 Kick-Ass 2 Aug 15, 2014 $19.99N/A (N/A)0 .. 20,0000%00:00 (00:00)
569 Mechs & Mercs: Black Talons Jan 9, 2015 $9.99N/A (N/A)0 .. 20,0000%00:00 (00:00)
570 Tiamat X May 29, 2015 $1.99N/A (N/A)50,000 .. 100,0001.89%01:16 (00:25)
571 Stellar Impact Apr 12, 2012 $9.99N/A (N/A/74%)50,000 .. 100,0000%00:00 (00:00)
572 Blue Sheep Mar 31, 2016 $1.99N/A (N/A)0 .. 20,0000%00:00 (00:00)
573 Urban Empire Jan 20, 2017 $29.99N/A (N/A/62%)50,000 .. 100,0000%00:00 (00:00)
574 Knight Adventure Oct 15, 2015 $0.99N/A (N/A)20,000 .. 50,00015.89%04:06 (04:31)
575 Fallen: A2P Protocol Aug 14, 2015 $9.99N/A (N/A)20,000 .. 50,0000%00:00 (00:00)
576 CTU: Counter Terrorism Unit Apr 22, 2016 $14.99N/A (N/A)0 .. 20,0000%00:00 (00:00)
577 Sim Junta Aug 18, 2015 $0.99N/A (N/A)0 .. 20,0000%00:00 (00:00)
578 Arma Tactics Oct 1, 2013 $8.992% (34%/47%)200,000 .. 500,0000%00:00 (00:00)
579 Into the Void Dec 4, 2015 $4.99N/A (N/A)20,000 .. 50,0000%00:00 (00:00)
580 Ranger of the jungle Jul 18, 2016 $3.99N/A (N/A)0 .. 20,0000%00:00 (00:00)
581 Shadows of War Jan 2, 2015 $2.99N/A (N/A)20,000 .. 50,0000%00:00 (00:00)
582 Jagged Alliance Flashback Oct 21, 2014 $19.99N/A (N/A)20,000 .. 50,0000%00:00 (00:00)
583 Disciples III - Resurrection Oct 11, 2011 $14.992% (32%/63%)100,000 .. 200,0000%00:00 (00:00)
584 Ground Pounders Jul 15, 2014 $4.99N/A (N/A)0 .. 20,0000%00:00 (00:00)
585 Psichodelya Aug 8, 2014 $1.99N/A (N/A)50,000 .. 100,0000%00:00 (00:00)
586 Ku: Shroud of the Morrigan Mar 17, 2014 $4.99N/A (N/A)20,000 .. 50,0000%00:00 (00:00)
587 Evopollution Apr 23, 2014 $4.99N/A (N/A)20,000 .. 50,0000%00:00 (00:00)
588 - Arcane RERaise - Apr 4, 2017 $2.99N/A (N/A)100,000 .. 200,00018.79%05:27 (03:54)
589 Tank Operations: European Campaign Nov 22, 2013 $14.99N/A (N/A)50,000 .. 100,0000%00:00 (00:00)
590 Robotex Nov 19, 2014 $4.99N/A (N/A)100,000 .. 200,0000%00:00 (00:00)
591 Zombie Zoeds May 20, 2015 $0.49N/A (N/A)200,000 .. 500,0000.28%04:29 (01:29)
592 Defenders of Time Nov 4, 2014 N/AN/A (N/A/55%)0 .. 20,0000%00:00 (00:00)
593 A Game of Thrones - Genesis Sep 28, 2011 $9.991% (30%)200,000 .. 500,0001.92%00:01 (00:00)
594 Power of Defense Aug 4, 2010 $9.99N/A (N/A)0 .. 20,0000%00:00 (00:00)
595 Solar Shifter EX Sep 11, 2015 $4.99N/A (N/A)20,000 .. 50,0000%00:00 (00:00)
596 Gridberd Sep 7, 2015 $6.99N/A (N/A)200,000 .. 500,0000.2%01:30 (00:30)
597 Hard Truck Apocalypse: Arcade / Ex Machina: Arcade Mar 14, 2014 $0.74N/A (N/A)20,000 .. 50,0000%00:00 (00:00)
598 Zombies on a Plane Mar 25, 2016 $4.99N/A (N/A)0 .. 20,0000%00:00 (00:00)
599 APOX Jan 20, 2011 $14.99N/A (N/A/48%)50,000 .. 100,0000%00:00 (00:00)
600 The Asskickers-Steam Edition Feb 6, 2015 $9.99N/A (N/A)0 .. 20,0000%00:00 (00:00)
601 Elite vs. Freedom May 31, 2016 $4.99N/A (N/A)0 .. 20,0000%00:00 (00:00)
602 One Star Apr 17, 2017 $2.99N/A (N/A)50,000 .. 100,0000%00:00 (00:00)
603 Lords of the Black Sun Sep 12, 2014 $29.99N/A (N/A)20,000 .. 50,0000%00:00 (00:00)
604 Human Extinction Simulator Jan 21, 2015 $19.99N/A (N/A)0 .. 20,0000%00:00 (00:00)
605 Gemini Wars Nov 2, 2012 $14.99N/A (N/A/53%)20,000 .. 50,0000%00:00 (00:00)
606 Tryst Sep 14, 2012 $14.99N/A (N/A/50%)0 .. 20,0000%00:00 (00:00)
607 Prison Tycoon 3: Lockdown Jan 29, 2008 $9.99N/A (N/A)20,000 .. 50,0000%00:00 (00:00)
608 Once Bitten, Twice Dead! Jul 7, 2015 $4.99N/A (N/A)20,000 .. 50,0000%00:00 (00:00)
609 Citadels Jul 25, 2013 $14.99N/A (N/A/20%)20,000 .. 50,0000%00:00 (00:00)
610 Star Project Aug 4, 2016 $1.99N/A (N/A)100,000 .. 200,0000.52%04:21 (01:27)
611 Bloodbath Jun 16, 2014 $14.99N/A (N/A)0 .. 20,0000%00:00 (00:00)
612 Magnetic By Nature Nov 10, 2014 $9.99N/A (N/A)20,000 .. 50,0000%00:00 (00:00)

Owners of this game also own:

Access restricted.

This feature is only available to users with special access rights. Sorry.

If you want to proceed, you need to register or log in first and then back Steam Spy on Patreon. Look for Indie or Pro pledge.

Don't forget to use the same email as on Steam Spy!

Playtime distribution:

Access restricted.

This feature is only available to users with special access rights. Sorry.

If you want to proceed, you need to register or log in first and then back Steam Spy on Patreon. Look for Indie or Pro pledge.

Don't forget to use the same email as on Steam Spy!

Playtime (2 weeks):

Access restricted.

This feature is only available to users with special access rights. Sorry.

If you want to proceed, you need to register or log in first and then back Steam Spy on Patreon. Look for Indie or Pro pledge.

Don't forget to use the same email as on Steam Spy!

User reviews:

Login required.

Please register or log in to see this information.